Accueil
METAR-TAF:

METAR-TAF

Aéroports :

Chehalis, Washington, États-Unis

latitude: 46-40-37N, longitude: 122-58-58W, altitude: 54 m

Observation

Le bulletin a été fait il y a 8 minutes, à 04:55 UTC
Vent calme
Température 7°C
Humidité 100%
Pression 1018 hPa
Visibilité: 11.3 km
Nuages épars à une hauteur de 3000 ft
Nuages fragmentés à une hauteur de 3900 ft
Nuages fragmentés à une hauteur de 5500 ft
faible bruine

METAR: KCLS 190455Z AUTO 00000KT 7SM -DZ SCT030 BKN039 BKN055 07/07 A3007 RMK AO2

Heure: 21:03 (05:03 UTC)


TAF: absent

Observations et prévisions météorologiques de plus de 4000 aéroports (messages METAR et TAF).

Les stations disponibles sont représentées par des disques jaunes et rouges sur la carte.

Passer la souris dessus pour voir le nom de la station.

Cliquer dessus pour voir les observations et prévisions météorologiques.

Pour changer de carte: cliquez sur les boutons verts avec une croix noire pour zoomer, sur le bouton vert avec un tiret pour effectuer un zoom arrière, ou sur les flèches vertes pour les cartes adjacentes.


METAR-TAF: